Sanford, NC

4:22 AM EDT on March 27, 2017 (GMT -0400)
Raleigh Executive Jetport

Weather History for KTTA - February, 2013

Change the Weather History Date:

Tuesday, February 19, 2013

  Actual Average (KHRJ) Record (KHRJ)
Temperature  
Mean Temperature 40 °F -  
Max Temperature 52 °F 56 °F 78 °F (2000)
Min Temperature 28 °F 34 °F 17 °F (1979)
Degree Days  
Heating Degree Days 25    
Moisture  
Dew Point 37 °F    
Average Humidity 87    
Maximum Humidity 97    
Minimum Humidity 66    
Precipitation  
Precipitation 0.07 in - - ()
Sea Level Pressure  
Sea Level Pressure 30.04 in    
Wind  
Wind Speed 3 mph (SW)    
Max Wind Speed 15 mph    
Max Gust Speed 25 mph    
Visibility 9 miles    
Events Fog , Rain    
Averages and records for this station are not official NWS values.
T = Trace of Precipitation, MM = Missing Value Source: NWS Daily Summary

Daily Weather History Graph

Daily Weather History Graph

Search for Another Location

Airport or City:

Trip Planner

Search our weather history database for the weather conditions in past years. The results will help you decide how hot, cold, wet, or windy it might be!

Date:

Astronomy

Feb. 19, 2013 Rise Set
Actual Time 6:58 AM EST 6:02 PM EST
Civil Twilight 6:32 AM EST 6:28 PM EST
Nautical Twilight 6:02 AM EST 6:58 PM EST
Astronomical Twilight 5:33 AM EST 7:27 PM EST
Moon 12:39 PM EST (2/19) 2:22 AM EST (2/19)
Length of Visible Light 11h 56m
Length of Day
11h 04m
Waxing Gibbous, 67% of the Moon is Illuminated
Feb 19
Waxing Gibbous
Feb 25
Full
Mar 4
Last Quarter
Mar 11
New
Mar 19
First Quarter

Hourly Weather History & Observations

Time (EST) Temp. Windchill Dew Point Humidity Pressure Visibility Wind Dir Wind Speed Gust Speed Precip Events Conditions
12:15 AM 36.1 °F - 25.7 °F 66% 30.26 in 10.0 mi Calm Calm - N/A   Clear
12:35 AM 33.3 °F - 25.2 °F 72% 30.25 in 10.0 mi Calm Calm - N/A   Clear
12:55 AM 31.8 °F - 25.2 °F 76% 30.24 in 10.0 mi Calm Calm - N/A   Clear
1:15 AM 32.0 °F - 25.5 °F 77% 30.24 in 10.0 mi Calm Calm - N/A   Clear
1:35 AM 30.0 °F - 25.0 °F 82% 30.24 in 10.0 mi Calm Calm - N/A   Clear
1:55 AM 29.7 °F - 25.2 °F 83% 30.22 in 10.0 mi Calm Calm - N/A   Scattered Clouds
2:15 AM 31.6 °F - 26.1 °F 80% 30.22 in 10.0 mi Calm Calm - N/A   Mostly Cloudy
2:35 AM 30.2 °F - 26.2 °F 85% 30.22 in 10.0 mi Calm Calm - N/A   Overcast
3:15 AM 30.0 °F - 25.3 °F 83% 30.19 in 10.0 mi Calm Calm - N/A   Scattered Clouds
3:35 AM 29.8 °F - 26.1 °F 86% 30.18 in 10.0 mi Calm Calm - N/A   Scattered Clouds
3:55 AM 29.3 °F - 25.2 °F 85% 30.17 in 10.0 mi Calm Calm - N/A   Clear
4:35 AM 30.0 °F - 26.4 °F 86% 30.15 in 10.0 mi Calm Calm - N/A   Clear
4:55 AM 28.4 °F - 25.2 °F 88% 30.14 in 10.0 mi Calm Calm - N/A   Clear
5:15 AM 28.6 °F - 25.7 °F 89% 30.13 in 10.0 mi Calm Calm - N/A   Clear
5:35 AM 28.8 °F - 25.9 °F 89% 30.14 in 10.0 mi Calm Calm - N/A   Clear
5:55 AM 29.1 °F - 26.4 °F 90% 30.14 in 10.0 mi Calm Calm - N/A   Clear
6:15 AM 28.6 °F - 25.9 °F 90% 30.13 in 10.0 mi Calm Calm - N/A   Mostly Cloudy
6:35 AM 29.5 °F - 27.0 °F 90% 30.12 in 10.0 mi Calm Calm - N/A   Overcast
6:55 AM 30.6 °F - 28.0 °F 90% 30.12 in 10.0 mi Calm Calm - N/A   Overcast
7:15 AM 31.8 °F - 29.3 °F 90% 30.11 in 10.0 mi Calm Calm - N/A   Overcast
7:35 AM 32.4 °F - 30.2 °F 92% 30.11 in 10.0 mi Calm Calm - N/A   Overcast
7:55 AM 34.2 °F - 32.0 °F 92% 30.12 in 10.0 mi Calm Calm - N/A   Overcast
8:15 AM 34.2 °F - 31.6 °F 90% 30.10 in 10.0 mi Calm Calm - N/A   Overcast
8:35 AM 38.3 °F 35.9 °F 34.7 °F 87% 30.09 in 10.0 mi SSW 3.5 mph - N/A   Overcast
8:55 AM 41.5 °F 39.6 °F 35.8 °F 80% 30.08 in 10.0 mi South 3.5 mph - N/A   Overcast
9:15 AM 43.2 °F 40.5 °F 36.5 °F 77% 30.07 in 10.0 mi South 4.6 mph - N/A   Overcast
9:35 AM 44.2 °F 40.3 °F 37.4 °F 77% 30.08 in 10.0 mi SSW 6.9 mph - N/A   Overcast
9:55 AM 44.4 °F 42.0 °F 37.8 °F 77% 30.08 in 10.0 mi SSW 4.6 mph - N/A Rain Light Rain
10:15 AM 44.6 °F 43.1 °F 39.6 °F 82% 30.07 in 10.0 mi SSW 3.5 mph - N/A Rain Light Rain
10:35 AM 44.8 °F - 41.2 °F 87% 30.07 in 10.0 mi Calm Calm - N/A Rain Light Rain
10:55 AM 45.0 °F 42.6 °F 41.9 °F 89% 30.06 in 10.0 mi SW 4.6 mph - 0.01 in Rain Light Rain
11:15 AM 45.3 °F 42.3 °F 42.6 °F 90% 30.05 in 10.0 mi South 5.8 mph - 0.01 in Rain Light Rain
11:35 AM 46.4 °F 42.9 °F 44.2 °F 92% 30.03 in 10.0 mi South 6.9 mph - 0.02 in Rain Light Rain
11:55 AM 49.5 °F - 46.9 °F 91% 30.01 in 10.0 mi SSW 8.1 mph 16.1 mph 0.03 in Rain Light Rain
12:15 PM 50.7 °F - 47.7 °F 89% 30.00 in 10.0 mi SSW 13.8 mph 21.9 mph N/A   Overcast
12:55 PM 51.8 °F - 48.2 °F 88% 29.97 in 5.0 mi SSW 13.8 mph 21.9 mph N/A   Drizzle
1:15 PM 51.8 °F - 49.1 °F 90% 29.94 in 3.0 mi SSW 11.5 mph 17.3 mph N/A   Drizzle
1:35 PM 52.7 °F - 50.0 °F 91% 29.92 in 10.0 mi SSW 15.0 mph 25.3 mph N/A   Overcast
1:55 PM 52.9 °F - 49.5 °F 88% 29.91 in 10.0 mi SSW 13.8 mph 21.9 mph N/A   Overcast
2:15 PM 52.3 °F - 50.0 °F 92% 29.91 in 2.0 mi SW 10.4 mph 19.6 mph 0.01 in Rain Heavy Rain
2:35 PM 52.0 °F - 50.2 °F 94% 29.91 in 2.0 mi SW 8.1 mph 16.1 mph 0.03 in   Heavy Drizzle
3:15 PM 51.8 °F - 50.0 °F 94% 29.89 in 2.0 mi SW 6.9 mph - N/A   Drizzle
4:15 PM 52.2 °F - 49.1 °F 89% 29.88 in 10.0 mi SW 12.7 mph 20.7 mph N/A   Overcast
4:35 PM 52.0 °F - 48.4 °F 88% 29.87 in 10.0 mi SW 11.5 mph 19.6 mph N/A   Overcast
4:55 PM 52.0 °F - 48.2 °F 87% 29.87 in 10.0 mi SW 11.5 mph 16.1 mph N/A   Overcast
5:15 PM 52.0 °F - 47.5 °F 85% 29.87 in 10.0 mi SW 11.5 mph 19.6 mph N/A   Overcast
5:55 PM 51.1 °F - 47.3 °F 87% 29.89 in 10.0 mi WSW 4.6 mph - N/A   Overcast
6:15 PM 50.5 °F - 45.5 °F 83% 29.91 in 10.0 mi West 10.4 mph 18.4 mph N/A   Overcast
6:35 PM 50.0 °F - 44.6 °F 82% 29.92 in 10.0 mi WSW 8.1 mph 17.3 mph N/A   Overcast
7:35 PM 49.1 °F - 43.3 °F 81% 29.95 in 10.0 mi WSW 8.1 mph - N/A   Overcast
7:55 PM 48.2 °F - 43.0 °F 82% 29.95 in 10.0 mi SW 6.9 mph - N/A   Mostly Cloudy
8:15 PM 47.7 °F - 43.0 °F 84% 29.95 in 10.0 mi SW 4.6 mph - N/A   Scattered Clouds
8:35 PM 46.9 °F - 42.8 °F 86% 29.96 in 10.0 mi WSW 4.6 mph - N/A   Scattered Clouds
8:55 PM 45.9 °F 43.6 °F 42.3 °F 87% 29.96 in 10.0 mi SW 4.6 mph - N/A   Scattered Clouds
9:15 PM 45.0 °F 43.5 °F 41.9 °F 89% 29.96 in 10.0 mi SW 3.5 mph - N/A   Scattered Clouds
9:35 PM 44.2 °F - 41.9 °F 91% 29.96 in 10.0 mi Calm Calm - N/A   Scattered Clouds
9:55 PM 42.8 °F - 40.6 °F 92% 29.97 in 7.0 mi Calm Calm - N/A   Clear
10:15 PM 41.2 °F - 39.4 °F 93% 29.97 in 4.0 mi Calm Calm - N/A   Clear
10:35 PM 39.9 °F - 38.3 °F 94% 29.97 in 0.5 mi Calm Calm - N/A Fog Fog
10:55 PM 37.4 °F 34.9 °F 36.1 °F 95% 29.97 in 1.2 mi SSW 3.5 mph - N/A   Mostly Cloudy
11:15 PM 39.0 °F 35.7 °F 38.1 °F 97% 29.97 in 5.0 mi SW 4.6 mph - N/A   Scattered Clouds
11:35 PM 40.3 °F - 39.4 °F 97% 29.97 in 7.0 mi Calm Calm - N/A   Clear
11:55 PM 41.2 °F 39.2 °F 40.3 °F 97% 29.97 in 7.0 mi WSW 3.5 mph - N/A   Clear